�������l�o���
Date,Time,MP-1(��Sv/h),MP-2(��Sv/h),MP-3(��Sv/h),MP-4(��Sv/h),MP-5(��Sv/h),MP-6(��Sv/h),MP-7(��Sv/h),MP-8(��Sv/h),����,����(m/s),���J
2019/12/13,00:00,0.719,1.039,0.694,1.305,0.913,0.411,0.721,0.681,�k��,5.5,��
2019/12/13,00:10,0.719,1.042,0.695,1.305,0.912,0.411,0.720,0.682,�k��,5.6,��
2019/12/13,00:20,0.720,1.041,0.695,1.306,0.912,0.409,0.719,0.680,�k��,5.5,��
2019/12/13,00:30,0.719,1.040,0.694,1.306,0.912,0.410,0.719,0.682,�k��,5.5,��
2019/12/13,00:40,0.720,1.042,0.693,1.304,0.908,0.410,0.720,0.683,���k��,5.8,��
2019/12/13,00:50,0.720,1.041,0.694,1.305,0.912,0.411,0.717,0.682,�k��,7.1,��
2019/12/13,01:00,0.720,1.042,0.695,1.305,0.909,0.409,0.718,0.682,�k��,3.4,��
2019/12/13,01:10,0.719,1.041,0.693,1.304,0.910,0.410,0.718,0.681,��,1.0,��
2019/12/13,01:20,0.719,1.040,0.694,1.305,0.910,0.409,0.718,0.682,���k��,2.2,��
2019/12/13,01:30,0.719,1.043,0.694,1.305,0.911,0.409,0.718,0.680,��,2.6,��
2019/12/13,01:40,0.720,1.039,0.696,1.306,0.910,0.408,0.718,0.680,��,3.2,��
2019/12/13,01:50,0.719,1.039,0.694,1.304,0.912,0.410,0.719,0.682,��,2.4,��
2019/12/13,02:00,0.719,1.042,0.694,1.306,0.910,0.410,0.718,0.681,���쐼,0.6,��
2019/12/13,02:10,0.719,1.041,0.693,1.304,0.909,0.410,0.718,0.682,�쐼,0.5,��
2019/12/13,02:20,0.718,1.040,0.692,1.304,0.911,0.410,0.719,0.681,��,0.5,��
2019/12/13,02:30,0.719,1.040,0.694,1.306,0.909,0.409,0.718,0.682,�k��,0.9,��
2019/12/13,02:40,0.719,1.041,0.693,1.305,0.911,0.408,0.717,0.682,�k��,0.6,��
2019/12/13,02:50,0.718,1.038,0.694,1.303,0.911,0.410,0.718,0.682,�k�k��,0.6,��
2019/12/13,03:00,0.720,1.041,0.694,1.305,0.911,0.409,0.719,0.680,�k��,1.7,��
2019/12/13,03:10,0.719,1.039,0.695,1.303,0.910,0.410,0.717,0.682,�k�k��,2.1,��
2019/12/13,03:20,0.717,1.040,0.693,1.300,0.909,0.409,0.716,0.680,�k��,2.5,��
2019/12/13,03:30,0.720,1.041,0.692,1.302,0.910,0.409,0.717,0.679,�k�k��,1.6,��
2019/12/13,03:40,0.720,1.038,0.693,1.306,0.908,0.409,0.717,0.680,�k�k��,2.0,��
2019/12/13,03:50,0.718,1.041,0.692,1.307,0.911,0.410,0.718,0.681,�k�k��,2.3,��
2019/12/13,04:00,0.719,1.039,0.694,1.303,0.911,0.408,0.717,0.680,�k�k��,3.3,��
2019/12/13,04:10,0.719,1.040,0.693,1.302,0.910,0.408,0.718,0.679,�k��,3.1,��
2019/12/13,04:20,0.718,1.038,0.692,1.306,0.909,0.410,0.717,0.681,�k��,4.0,��
2019/12/13,04:30,0.718,1.041,0.693,1.304,0.910,0.409,0.716,0.679,�k��,5.3,��
2019/12/13,04:40,0.718,1.038,0.693,1.305,0.910,0.409,0.717,0.681,�k��,5.5,��
2019/12/13,04:50,0.719,1.040,0.692,1.305,0.911,0.408,0.718,0.680,�k��,5.2,��
2019/12/13,05:00,0.718,1.037,0.694,1.305,0.908,0.408,0.716,0.681,�k��,4.7,��
2019/12/13,05:10,0.718,1.039,0.694,1.303,0.907,0.409,0.717,0.681,�k��,3.8,��
2019/12/13,05:20,0.718,1.038,0.693,1.303,0.909,0.408,0.716,0.683,�k��,4.6,��
2019/12/13,05:30,0.719,1.039,0.693,1.304,0.910,0.409,0.718,0.681,�k��,4.4,��
2019/12/13,05:40,0.719,1.041,0.693,1.304,0.910,0.408,0.716,0.680,�k��,3.4,��
2019/12/13,05:50,0.719,1.038,0.694,1.304,0.910,0.409,0.716,0.680,���k��,3.8,��
2019/12/13,06:00,0.718,1.040,0.694,1.302,0.911,0.408,0.716,0.680,���k��,3.1,��
2019/12/13,06:10,0.719,1.039,0.694,1.301,0.909,0.408,0.715,0.679,��,3.6,��
2019/12/13,06:20,0.719,1.040,0.694,1.305,0.908,0.409,0.715,0.681,��,3.8,��
2019/12/13,06:30,0.718,1.039,0.692,1.302,0.909,0.407,0.718,0.680,��,4.6,��
2019/12/13,06:40,0.718,1.039,0.694,1.304,0.907,0.409,0.717,0.678,��,4.2,��
2019/12/13,06:50,0.716,1.040,0.694,1.302,0.908,0.410,0.716,0.681,���k��,4.5,��
2019/12/13,07:00,0.719,1.039,0.694,1.302,0.908,0.408,0.715,0.680,���k��,5.8,��
2019/12/13,07:10,0.718,1.041,0.692,1.304,0.907,0.409,0.719,0.681,���k��,6.0,��
2019/12/13,07:20,0.720,1.039,0.694,1.305,0.909,0.408,0.719,0.681,�k��,6.9,��
2019/12/13,07:30,0.718,1.038,0.691,1.305,0.908,0.408,0.717,0.681,�k��,7.7,��
2019/12/13,07:40,0.719,1.037,0.693,1.305,0.909,0.408,0.718,0.681,�k��,8.8,��
2019/12/13,07:50,0.719,1.040,0.690,1.305,0.909,0.408,0.717,0.682,�k��,6.9,��
2019/12/13,08:00,0.719,1.038,0.693,1.303,0.909,0.408,0.717,0.681,�k��,6.0,��
2019/12/13,08:10,0.718,1.037,0.692,1.306,0.908,0.409,0.717,0.680,�k��,5.6,��
2019/12/13,08:20,0.720,1.040,0.691,1.306,0.907,0.409,0.716,0.678,�k��,6.9,��
2019/12/13,08:30,0.720,1.040,0.691,1.306,0.908,0.410,0.718,0.681,�k�k��,5.8,��
2019/12/13,08:40,0.719,1.039,0.693,1.304,0.909,0.408,0.717,0.682,�k�k��,5.8,��
2019/12/13,08:50,0.721,1.041,0.692,1.305,0.908,0.408,0.718,0.680,�k�k��,5.8,��
2019/12/13,09:00,0.719,1.039,0.693,1.304,0.907,0.410,0.718,0.682,�k�k��,5.2,��
2019/12/13,09:10,0.721,1.037,0.694,1.304,0.909,0.408,0.718,0.682,�k�k��,3.5,��
2019/12/13,09:20,0.720,1.040,0.692,1.303,0.909,0.409,0.719,0.680,�k,2.5,��
2019/12/13,09:30,0.720,1.039,0.693,1.303,0.909,0.408,0.718,0.681,�k,2.7,��
2019/12/13,09:40,0.721,1.038,0.690,1.304,0.910,0.409,0.718,0.680,�k�k��,3.3,��
2019/12/13,09:50,0.722,1.037,0.685,1.303,0.910,0.409,0.719,0.680,�k�k��,4.2,��
2019/12/13,10:00,0.720,1.038,0.686,1.306,0.910,0.409,0.718,0.683,�k��,4.7,��
2019/12/13,10:10,0.722,1.040,0.686,1.303,0.910,0.409,0.719,0.681,�k��,6.0,��
2019/12/13,10:20,0.722,1.039,0.685,1.305,0.909,0.410,0.720,0.682,�k��,6.3,��
2019/12/13,10:30,0.721,1.039,0.687,1.304,0.912,0.410,0.720,0.681,�k��,7.1,��
2019/12/13,10:40,0.722,1.040,0.686,1.305,0.913,0.410,0.718,0.682,�k��,5.6,��
2019/12/13,10:50,0.723,1.038,0.687,1.305,0.910,0.409,0.717,0.680,�k��,4.2,��
2019/12/13,11:00,0.721,1.039,0.686,1.303,0.907,0.409,0.719,0.681,�k�k��,5.2,��
2019/12/13,11:10,0.720,1.038,0.685,1.307,0.906,0.409,0.718,0.681,�k�k��,5.0,��
2019/12/13,11:20,0.722,1.041,0.686,1.307,0.910,0.411,0.717,0.681,�k�k��,5.5,��
2019/12/13,11:30,0.721,1.034,0.691,1.306,0.911,0.409,0.718,0.681,�k�k��,4.7,��
2019/12/13,11:40,0.722,1.040,0.692,1.305,0.912,0.409,0.718,0.681,�k�k��,5.2,��
2019/12/13,11:50,0.720,1.038,0.691,1.308,0.910,0.409,0.718,0.682,�k�k��,3.3,��
2019/12/13,12:00,0.722,1.039,0.692,1.307,0.911,0.408,0.720,0.681,�k�k��,3.4,��
2019/12/13,12:10,0.718,1.037,0.695,1.307,0.911,0.410,0.720,0.682,�k�k��,4.9,��
2019/12/13,12:20,0.722,1.037,0.693,1.309,0.911,0.410,0.722,0.682,�k�k��,3.4,��
2019/12/13,12:30,0.723,1.039,0.695,1.304,0.912,0.410,0.722,0.683,���k��,1.9,��
2019/12/13,12:40,0.723,1.039,0.695,1.305,0.912,0.411,0.722,0.684,��,2.3,��
2019/12/13,12:50,0.721,1.038,0.694,1.306,0.910,0.411,0.720,0.683,��,3.1,��
2019/12/13,13:00,0.724,1.040,0.695,1.305,0.913,0.409,0.721,0.684,��,4.5,��
2019/12/13,13:10,0.723,1.041,0.695,1.306,0.912,0.410,0.720,0.681,��,4.5,��
2019/12/13,13:20,0.722,1.041,0.695,1.307,0.911,0.409,0.721,0.683,���k��,3.9,��
2019/12/13,13:30,0.721,1.041,0.695,1.307,0.911,0.410,0.721,0.680,�k��,2.9,��
2019/12/13,13:40,0.723,1.038,0.695,1.306,0.911,0.410,0.722,0.679,�k�k��,1.1,��
2019/12/13,13:50,0.723,1.039,0.697,1.307,0.913,0.410,0.720,0.681,��,4.9,��
2019/12/13,14:00,0.721,1.042,0.695,1.307,0.913,0.412,0.721,0.680,��,4.9,��
2019/12/13,14:10,0.721,1.039,0.695,1.306,0.913,0.411,0.721,0.681,���쐼,3.3,��
2019/12/13,14:20,0.718,1.041,0.694,1.307,0.914,0.410,0.720,0.679,��,3.2,��
2019/12/13,14:30,0.719,1.039,0.696,1.308,0.910,0.411,0.721,0.681,���쐼,3.5,��
2019/12/13,14:40,0.719,1.043,0.696,1.309,0.912,0.410,0.721,0.683,���쐼,3.8,��
2019/12/13,14:50,0.721,1.042,0.696,1.307,0.912,0.411,0.722,0.683,�쐼,3.6,��
2019/12/13,15:00,0.720,1.042,0.694,1.309,0.911,0.411,0.720,0.684,�쐼,4.0,��
2019/12/13,15:10,0.722,1.042,0.696,1.308,0.911,0.411,0.720,0.682,�쐼,4.2,��
2019/12/13,15:20,0.721,1.043,0.697,1.308,0.914,0.411,0.719,0.682,�쐼,3.3,��
2019/12/13,15:30,0.721,1.045,0.699,1.307,0.914,0.411,0.721,0.682,���쐼,2.8,��
2019/12/13,15:40,0.720,1.044,0.696,1.310,0.914,0.412,0.720,0.684,���쐼,1.9,��
2019/12/13,15:50,0.722,1.043,0.696,1.309,0.911,0.410,0.721,0.681,��,1.5,��
2019/12/13,16:00,0.720,1.042,0.696,1.306,0.912,0.413,0.721,0.682,�쐼,1.9,��
2019/12/13,16:10,0.720,1.042,0.693,1.307,0.913,0.412,0.719,0.681,���쐼,2.8,��
2019/12/13,16:20,0.721,1.042,0.696,1.306,0.914,0.413,0.720,0.681,�쐼,2.8,��
2019/12/13,16:30,0.721,1.042,0.696,1.307,0.912,0.412,0.719,0.681,�쐼,4.0,��
2019/12/13,16:40,0.721,1.042,0.694,1.305,0.912,0.411,0.720,0.681,���쐼,5.5,��
2019/12/13,16:50,0.720,1.041,0.694,1.306,0.912,0.413,0.719,0.681,���쐼,4.6,��
2019/12/13,17:00,0.719,1.042,0.695,1.307,0.913,0.411,0.720,0.681,���쐼,4.3,��
2019/12/13,17:10,0.719,1.041,0.696,1.305,0.911,0.411,0.718,0.681,��,4.1,��
2019/12/13,17:20,0.720,1.040,0.696,1.306,0.912,0.412,0.719,0.681,��,5.5,��
2019/12/13,17:30,0.721,1.042,0.695,1.308,0.911,0.411,0.720,0.683,��,5.6,��
2019/12/13,17:40,0.719,1.042,0.695,1.305,0.911,0.412,0.717,0.681,��,4.7,��
2019/12/13,17:50,0.718,1.044,0.696,1.305,0.912,0.412,0.719,0.681,��,4.5,��
2019/12/13,18:00,0.719,1.043,0.694,1.306,0.913,0.412,0.718,0.684,��,4.2,��
2019/12/13,18:10,0.720,1.043,0.695,1.306,0.911,0.411,0.720,0.681,��,4.4,��
2019/12/13,18:20,0.719,1.041,0.695,1.308,0.913,0.411,0.718,0.682,��,4.9,��
2019/12/13,18:30,0.719,1.044,0.694,1.306,0.910,0.412,0.719,0.682,��,4.7,��
2019/12/13,18:40,0.720,1.042,0.696,1.306,0.911,0.411,0.719,0.681,��,4.4,��
2019/12/13,18:50,0.719,1.043,0.695,1.307,0.911,0.411,0.718,0.682,��,4.1,��
2019/12/13,19:00,0.719,1.041,0.694,1.306,0.910,0.411,0.718,0.680,��,5.2,��
2019/12/13,19:10,0.718,1.043,0.695,1.306,0.913,0.409,0.719,0.681,��,4.9,��
2019/12/13,19:20,0.718,1.041,0.696,1.307,0.911,0.412,0.718,0.681,��,4.7,��
2019/12/13,19:30,0.718,1.041,0.695,1.304,0.911,0.411,0.717,0.680,��,4.3,��
2019/12/13,19:40,0.718,1.042,0.695,1.305,0.910,0.409,0.718,0.681,��,3.6,��
2019/12/13,19:50,0.718,1.043,0.693,1.307,0.910,0.410,0.720,0.680,���쐼,3.4,��
2019/12/13,20:00,0.719,1.042,0.696,1.309,0.911,0.411,0.719,0.682,�쐼,4.0,��
2019/12/13,20:10,0.718,1.044,0.693,1.308,0.912,0.409,0.719,0.683,���쐼,4.5,��
2019/12/13,20:20,0.722,1.043,0.695,1.306,0.914,0.411,0.718,0.682,���쐼,5.2,��
2019/12/13,20:30,0.720,1.041,0.695,1.308,0.911,0.410,0.719,0.681,���쐼,4.9,��
2019/12/13,20:40,0.720,1.041,0.697,1.306,0.911,0.410,0.717,0.681,���쐼,5.2,��
2019/12/13,20:50,0.718,1.042,0.694,1.306,0.911,0.411,0.719,0.681,���쐼,5.3,��
2019/12/13,21:00,0.719,1.042,0.695,1.304,0.913,0.410,0.719,0.681,���쐼,5.3,��
2019/12/13,21:10,0.718,1.042,0.694,1.305,0.911,0.411,0.719,0.681,���쐼,3.8,��
2019/12/13,21:20,0.718,1.041,0.694,1.306,0.909,0.412,0.718,0.680,���쐼,4.9,��
2019/12/13,21:30,0.719,1.043,0.697,1.306,0.911,0.413,0.717,0.681,���쐼,4.4,��
2019/12/13,21:40,0.719,1.044,0.696,1.305,0.912,0.411,0.719,0.682,���쐼,3.8,��
2019/12/13,21:50,0.718,1.043,0.694,1.307,0.912,0.409,0.719,0.680,���쐼,3.4,��
2019/12/13,22:00,0.719,1.041,0.695,1.306,0.909,0.410,0.719,0.682,���쐼,4.0,��
2019/12/13,22:10,0.718,1.041,0.694,1.307,0.912,0.411,0.717,0.680,���쐼,3.6,��
2019/12/13,22:20,0.720,1.041,0.695,1.307,0.911,0.409,0.719,0.681,���쐼,3.8,��
2019/12/13,22:30,0.719,1.042,0.693,1.307,0.912,0.409,0.719,0.682,�쐼,4.7,��
2019/12/13,22:40,0.718,1.042,0.694,1.307,0.910,0.411,0.718,0.682,�쐼,4.9,��
2019/12/13,22:50,0.718,1.041,0.694,1.305,0.911,0.410,0.717,0.684,�쐼,4.9,��
2019/12/13,23:00,0.718,1.041,0.695,1.307,0.910,0.410,0.717,0.683,�쐼,5.5,��
2019/12/13,23:10,0.720,1.044,0.695,1.305,0.909,0.410,0.718,0.681,�쐼,5.0,��
2019/12/13,23:20,0.719,1.041,0.694,1.308,0.909,0.410,0.718,0.682,�쐼,4.5,��
2019/12/13,23:30,0.720,1.041,0.695,1.305,0.910,0.410,0.718,0.681,�쐼,4.3,��
2019/12/13,23:40,0.719,1.043,0.695,1.306,0.912,0.410,0.720,0.681,�쐼,4.4,��
2019/12/13,23:50,0.721,1.042,0.694,1.305,0.912,0.411,0.718,0.682,�쐼,4.5,��
